This is the latest recevied weather packets stored in our database for station/object W4DEX-2. If no packets are shown the sender has not sent any weather packets the latest 10 day(s).
| Time | Temp. | Humidity | Pressure | Rain* | Wind** | Luminosity | Snow |
|---|---|---|---|---|---|---|---|
| 1777650603 | 13.33° C | 56% | 1015.1 hPa | 0 mm | 5.36 m/s, 176° | - | - |
| 1777650302 | 13.33° C | 55% | 1015.1 hPa | 0 mm | 5.36 m/s, 180° | - | - |
| 1777650002 | 13.33° C | 53% | 1014.9 hPa | 0 mm | 5.36 m/s, 169° | - | - |
| 1777649102 | 13.33° C | 52% | 1015 hPa | 0 mm | 5.81 m/s, 175° | - | - |
| 1777648802 | 13.33° C | 52% | 1015 hPa | 0 mm | 5.36 m/s, 175° | - | - |
| 1777648502 | 12.78° C | 53% | 1015.2 hPa | 0 mm | 5.36 m/s, 177° | - | - |
| 1777648203 | 12.78° C | 53% | 1015.2 hPa | 0 mm | 5.36 m/s, 172° | - | - |
| 1777647903 | 13.89° C | 51% | 1015 hPa | 0 mm | 5.36 m/s, 176° | - | - |
| 1777647602 | 13.33° C | 53% | 1015.1 hPa | 0 mm | 5.36 m/s, 174° | - | - |
| 1777647302 | 13.33° C | 52% | 1015.1 hPa | 0 mm | 5.81 m/s, 179° | - | - |
| 1777645802 | 13.33° C | 55% | 1014.8 hPa | 0 mm | 4.92 m/s, 180° | - | - |
| 1777645502 | 13.33° C | 54% | 1014.7 hPa | 0 mm | 4.02 m/s, 178° | - | - |
| 1777645203 | 12.78° C | 56% | 1015 hPa | 0 mm | 5.36 m/s, 176° | - | - |
| 1777644903 | 12.78° C | 56% | 1015 hPa | 0 mm | 5.36 m/s, 176° | - | - |
| 1777644602 | 12.22° C | 55% | 1014.9 hPa | 0 mm | 4.92 m/s, 191° | - | - |
| 1777644003 | 12.22° C | 53% | 1015.2 hPa | 0 mm | 4.92 m/s, 189° | - | - |
| 1777643702 | 12.22° C | 56% | 1015.1 hPa | 0 mm | 4.92 m/s, 171° | - | - |
| 1777643402 | 12.22° C | 56% | 1014.9 hPa | 0 mm | 5.36 m/s, 176° | - | - |
| 1777643102 | 12.22° C | 57% | 1014.8 hPa | 0 mm | 4.02 m/s, 178° | - | - |
| 1777642802 | 12.22° C | 57% | 1014.5 hPa | 0 mm | 4.92 m/s, 176° | - | - |
| 1777642503 | 11.67° C | 56% | 1014.7 hPa | 0 mm | 5.36 m/s, 181° | - | - |
| 1777642203 | 12.22° C | 57% | 1014.7 hPa | 0 mm | 5.36 m/s, 181° | - | - |
| 1777641902 | 12.22° C | 59% | 1014.8 hPa | 0 mm | 5.36 m/s, 178° | - | - |
| 1777641603 | 11.67° C | 56% | 1014.5 hPa | 0 mm | 5.81 m/s, 186° | - | - |
| 1777641302 | 11.67° C | 58% | 1014.5 hPa | 0 mm | 5.36 m/s, 175° | - | - |
* Rain latest hour (hover to see other rain measurements)
** Current wind speed in m/s (hover to see current wind gust speed)